Weather in Khurtey

Russia / Republic of Buryatia     51°56′35″N   110°49′34″E
temp.,
°C
wind,
m/s
gust,
m/s
humid.,
%
clouds,
%
prec.,
mm/h
press.,
hPa
HPBL,
m
7 may, fri
fri723:000sw225887 0.0 100822
02:000sw1358100 0.0 1005123
05:00−1nw139099 0.9 1005253
08:00+3nw575744 0.9 10041186
11:00+5nnw574899 0.0 10041707
14:00+7n5964100 0.2 10051369
17:00+8nnw366199 1.1 10061075
20:00+3nw2291100 2.2 101023
8 may, sat
sat823:00+1w11915 0.1 101210
02:00−1wsw11915 0.1 101310
05:00−2ssw11935 0.0 101410
08:00+4sw12705 0.0 1013398
11:00+9wsw35465 0.0 10101503
14:00+13wnw362737 0.0 10062711
17:00+13wnw4623100 0.0 10052950
20:00+7nnw363993 0.0 1007186
9 may, sun
sun923:00+5wsw2349100 0.0 101064
02:00+2wnw226695 0.0 101118
05:000sw2279100 0.0 101225
08:00+5w246224 0.0 1012605
11:00+9w4448100 0.2 10091751
14:00+11w553999 0.8 10072247
17:00+12wnw453892 0.1 10062111
20:00+7w1150100 0.1 100810
10 may, mon
mon1023:00+4s116398 0.0 101011
02:00+2e2171100 0.0 101012
05:00+2e227199 0.0 100928
08:00+4ne2382100 1.3 1008155
11:00+5se4787100 3.4 1008834
14:00+2sw3798100 6.4 1010402
17:00+2sw2593100 0.3 1010757
20:00+3wsw1596100 0.4 1010397
11 may, tue
tue1123:00+2wnw1297100 0.3 1011120
02:00+3nnw1496100 6.3 1007270
05:00+1nw12100100 2.5 1011119
08:00+2w1199100 2.8 1012161
11:00+4wsw1292100 0.0 1012439
14:00+7sw227977 0.1 1010678
17:00+8sw2370100 0.0 1009865
20:00+4sw118892 0.0 101010